Hourly Data Report for October 19, 2013

All times are specified in Local Standard Time (LST). Add 1 hour to adjust for Daylight Saving Time where and when it is observed.

TORONTO INTL A
ONTARIO

43°40'36.000" N
79°37'50.000" W
173.40 m
6158731
71624
YYZ

Related Data

No related data is available for this station

Download Data

Hourly Data (October 2013)
Hourly Data Report for October 19, 2013
Temp Definition
°C
Dew Point Temp Definition
°C
Rel Hum Definition
%
Wind Dir Definition
10's deg

Wind Spd Definition
km/h
Visibility Definition
km
Stn Press Definition
kPa
Hmdx Definition


Wind Chill Definition


Weather Definition


TIME
00:00 Legend Double Dagger 9.2 6.1 81 24 7 24.1 99.02     LegendNANA
01:00 Legend Double Dagger 7.6 5.3 85 26 10 24.1 99.03     Mainly Clear
02:00 Legend Double Dagger 8.3 5.9 85 30 16 24.1 98.98     LegendNANA
03:00 Legend Double Dagger 8.9 5.7 80 18 8 24.1 98.94     LegendNANA
04:00 Legend Double Dagger 8.0 5.3 83 21 10 24.1 98.95     Mainly Clear
05:00 Legend Double Dagger 8.0 5.5 84 22 10 24.1 98.95     LegendNANA
06:00 Legend Double Dagger 8.1 5.7 85 23 11 24.1 98.92     LegendNANA
07:00 Legend Double Dagger 7.8 5.8 87 26 10 24.1 98.91     Cloudy
08:00 Legend Double Dagger 8.3 6.1 86 24 8 24.1 98.86     LegendNANA
09:00 Legend Double Dagger 9.5 6.6 82 21 3 24.1 98.84     LegendNANA
10:00 Legend Double Dagger 9.9 6.3 78 16 8 24.1 98.78     Cloudy
11:00 Legend Double Dagger 10.5 5.5 71 23 8 24.1 98.74     LegendNANA
12:00 Legend Double Dagger 10.2 5.4 72 20 10 19.3 98.65     Rain
13:00 Legend Double Dagger 10.0 6.2 77 23 9 24.1 98.57     Rain
14:00 Legend Double Dagger 8.4 5.9 84 27 19 14.5 98.49     LegendNANA
15:00 Legend Double Dagger 8.5 6.8 89 18 5 19.3 98.41     Rain
16:00 Legend Double Dagger 8.2 6.7 90 24 15 12.9 98.38     Rain
17:00 Legend Double Dagger 7.6 6.4 92 28 13 12.9 98.41     Rain
18:00 Legend Double Dagger 6.8 5.1 89 25 18 12.9 98.41     Rain
19:00 Legend Double Dagger 6.7 4.9 88 26 27 24.1 98.44     Mostly Cloudy
20:00 Legend Double Dagger 5.6 3.6 87 26 16 24.1 98.49     LegendNANA
21:00 Legend Double Dagger 5.4 3.3 86 26 23 24.1 98.59     LegendNANA
22:00 Legend Double Dagger 4.8 3.0 88 26 18 24.1 98.64     Mainly Clear
23:00 Legend Double Dagger 5.3 3.3 87 25 22 24.1 98.67     LegendNANA

Notes on Data Quality.

Legend

  • E = Estimated
  • M = Missing
  • NA = Not Available
  • ‡ = Partner data that is not subject to review by the National Climate Archives
Date modified: